Rotterdam, Netherlands

2:58 AM CEST on April 27, 2017 (GMT +0200)
Rotterdam

Weather History for EHRD - November, 2012

Change the Weather History Date:

Wednesday, November 14, 2012

  Actual Average Record
Temperature  
Mean Temperature 44 °F -  
Max Temperature 53 °F 45 °F 57 °F (2006)
Min Temperature 35 °F 37 °F 26 °F (2016)
Degree Days  
Heating Degree Days 21    
Moisture  
Dew Point 42 °F    
Average Humidity 84    
Maximum Humidity 100    
Minimum Humidity 47    
Precipitation  
Precipitation 0.00 in - - ()
Sea Level Pressure  
Sea Level Pressure 30.35 in    
Wind  
Wind Speed 5 mph ()    
Max Wind Speed 9 mph    
Max Gust Speed -    
Visibility 6.6 miles    
Events      
Averages and records for this station are not official NWS values.
T = Trace of Precipitation, MM = Missing Value Source: Averaged Metar Reports

Daily Weather History Graph

Daily Weather History Graph

Search for Another Location

Airport or City:

Trip Planner

Search our weather history database for the weather conditions in past years. The results will help you decide how hot, cold, wet, or windy it might be!

Date:

Astronomy

Nov. 14, 2012 Rise Set
Actual Time 8:00 AM CET 4:52 PM CET
Civil Twilight 7:23 AM CET 5:29 PM CET
Nautical Twilight 6:42 AM CET 6:10 PM CET
Astronomical Twilight 6:02 AM CET 6:50 PM CET
Moon 8:38 AM CET (11/14) 5:17 PM CET (11/14)
Length of Visible Light 10h 06m
Length of Day
8h 51m
New Moon, 0% of the Moon is Illuminated
Nov 14
New Moon
Nov 20
First Quarter
Nov 28
Full
Dec 6
Last Quarter
Dec 13
New

Hourly Weather History & Observations

Time (CET) Temp. Windchill Dew Point Humidity Pressure Visibility Wind Dir Wind Speed Gust Speed Precip Events Conditions
12:25 AM 50.0 °F - 48.2 °F 94% 30.42 in 6.2 mi South 5.8 mph - N/A   Overcast
12:55 AM 50.0 °F - 48.2 °F 94% 30.42 in 6.2 mi SSE 5.8 mph - N/A   Overcast
1:00 AM 49 °F - 48 °F 97% 30.43 in 7 mi SSE 4.5 mph - -   Partly Cloudy
1:25 AM 50.0 °F - 48.2 °F 94% 30.42 in 6.2 mi SSE 5.8 mph - N/A   Overcast
1:55 AM 50.0 °F - 48.2 °F 94% 30.42 in 6.2 mi South 4.6 mph - N/A   Overcast
2:25 AM 50.0 °F - 48.2 °F 94% 30.42 in 6.2 mi SSE 4.6 mph - N/A   Overcast
2:55 AM 50.0 °F - 48.2 °F 94% 30.42 in 6.2 mi SSE 4.6 mph - N/A   Overcast
3:25 AM 50.0 °F - 48.2 °F 94% 30.39 in 6.2 mi SSE 3.5 mph - N/A   Overcast
3:55 AM 48.2 °F - 48.2 °F 100% 30.39 in 5.6 mi SSE 4.6 mph - N/A   Overcast
4:00 AM 49 °F - 48 °F 97% 30.41 in 6 mi SSE 2.2 mph - -   Overcast
4:25 AM 48.2 °F - 48.2 °F 100% 30.39 in 6.2 mi SSE 2.3 mph - N/A   Overcast
4:55 AM 48.2 °F - 48.2 °F 100% 30.39 in 6.2 mi SSE 4.6 mph - N/A   Overcast
5:25 AM 48.2 °F - 48.2 °F 100% 30.39 in 5.6 mi SSE 3.5 mph - N/A   Overcast
5:55 AM 48.2 °F - 48.2 °F 100% 30.39 in 5.6 mi SE 2.3 mph - N/A   Overcast
6:25 AM 48.2 °F - 48.2 °F 100% 30.39 in 5.6 mi SE 3.5 mph - N/A   Overcast
6:55 AM 48.2 °F - 48.2 °F 100% 30.39 in 5.6 mi SSE 3.5 mph - N/A   Overcast
7:00 AM 49 °F - 48 °F 93% 30.40 in 6 mi SE 2.2 mph - -   Mist
7:25 AM 50.0 °F - 48.2 °F 94% 30.39 in 5.6 mi Variable 2.3 mph - N/A   Overcast
7:55 AM 48.2 °F - 48.2 °F 100% 30.39 in 4.3 mi Variable 2.3 mph - N/A   Overcast
8:25 AM 48.2 °F - 48.2 °F 100% 30.39 in 5.0 mi East 3.5 mph - N/A   Overcast
8:55 AM 48.2 °F - 48.2 °F 100% 30.39 in 5.6 mi East 5.8 mph - N/A   Overcast
9:25 AM 48.2 °F - 46.4 °F 93% 30.39 in 6.2 mi East 5.8 mph - N/A   Overcast
9:55 AM 48.2 °F - 46.4 °F 93% 30.39 in 6.2 mi ESE 5.8 mph - N/A   Overcast
10:00 AM 49 °F - 46 °F 83% 30.40 in 9 mi ESE 6.7 mph - -   Overcast
10:25 AM 50.0 °F - 44.6 °F 82% 30.39 in 6.2 mi East 6.9 mph - N/A   Overcast
10:55 AM 50.0 °F - 44.6 °F 82% 30.39 in 6.2 mi East 6.9 mph - N/A   Unknown
11:25 AM 51.8 °F - 44.6 °F 76% 30.36 in 6.2 mi East 6.9 mph - N/A   Unknown
11:55 AM 51.8 °F - 41.0 °F 67% 30.36 in 6.2 mi East 6.9 mph - N/A   Unknown
12:25 PM 53.6 °F - 39.2 °F 58% 30.36 in 6.2 mi ESE 9.2 mph - N/A   Unknown
12:55 PM 51.8 °F - 37.4 °F 58% 30.36 in 6.2 mi ESE 8.1 mph - N/A   Unknown
1:00 PM 53 °F - 38 °F 47% 30.36 in 16 mi East 8.9 mph - -   Partly Cloudy
1:25 PM 51.8 °F - 39.2 °F 62% 30.33 in 6.2 mi East 6.9 mph - N/A   Unknown
1:55 PM 53.6 °F - 37.4 °F 54% 30.33 in 6.2 mi East 6.9 mph - N/A   Unknown
2:25 PM 53.6 °F - 37.4 °F 54% 30.33 in 6.2 mi East 8.1 mph - N/A   Unknown
2:55 PM 51.8 °F - 37.4 °F 58% 30.30 in 6.2 mi East 8.1 mph - N/A   Unknown
3:25 PM 51.8 °F - 39.2 °F 62% 30.30 in 6.2 mi East 8.1 mph - N/A   Unknown
3:55 PM 51.8 °F - 35.6 °F 54% 30.30 in 6.2 mi East 9.2 mph - N/A   Unknown
4:00 PM 49 °F - 39 °F 58% 30.32 in 19 mi East 8.9 mph - -  
4:25 PM 48.2 °F - 39.2 °F 71% 30.30 in 6.2 mi East 8.1 mph - N/A   Unknown
4:55 PM 46.4 °F 42.9 °F 39.2 °F 76% 30.30 in 6.2 mi ENE 6.9 mph - N/A   Unknown
5:25 PM 48.2 °F - 37.4 °F 66% 30.30 in 6.2 mi East 6.9 mph - N/A   Unknown
5:55 PM 48.2 °F - 39.2 °F 71% 30.30 in 6.2 mi East 6.9 mph - N/A   Unknown
6:25 PM 46.4 °F 43.5 °F 39.2 °F 76% 30.30 in 6.2 mi East 5.8 mph - N/A   Unknown
6:55 PM 44.6 °F 42.2 °F 37.4 °F 76% 30.30 in 6.2 mi East 4.6 mph - N/A   Unknown
7:00 PM 44 °F - 37 °F 70% 30.32 in 13 mi East 4.5 mph - -   Partly Cloudy
7:25 PM 42.8 °F 40.1 °F 37.4 °F 81% 30.30 in 6.2 mi East 4.6 mph - N/A   Unknown
7:55 PM 42.8 °F 41.1 °F 37.4 °F 81% 30.30 in 6.2 mi ENE 3.5 mph - N/A   Unknown
8:25 PM 37.4 °F 33.8 °F 35.6 °F 93% 30.30 in 6.2 mi East 4.6 mph - N/A   Unknown
8:55 PM 37.4 °F 34.9 °F 35.6 °F 93% 30.30 in 6.2 mi East 3.5 mph - N/A   Unknown
9:25 PM 39.2 °F - 37.4 °F 93% 30.27 in 6.2 mi Variable 1.2 mph - N/A   Unknown
9:55 PM 37.4 °F 34.9 °F 35.6 °F 93% 30.27 in 6.2 mi NNW 3.5 mph - N/A   Unknown
10:00 PM 37 °F - 37 °F 98% 30.30 in 6 mi NNE 2.2 mph - -   Mist
10:25 PM 39.2 °F - 37.4 °F 93% 30.27 in 5.6 mi NE 2.3 mph - N/A   Unknown
10:55 PM 37.4 °F - 37.4 °F 100% 30.27 in 4.3 mi North 2.3 mph - N/A   Unknown
11:25 PM 35.6 °F - 35.6 °F 100% 30.27 in - North 2.3 mph - N/A   Mist
11:55 PM 35.6 °F - 35.6 °F 100% 30.27 in 3.1 mi Variable 1.2 mph - N/A   Mist